Location: ????
(30.1475°N, 31.1342°E)
Time: 03:04:44
(UTC+00:00)

DELTA 2 R/B (1) - Pass Details

Date: 27 September 2022
Orbit: 789 x 803 km, 39.6° (Epoch: 01 December)

Event Time Altitude Azimuth Distance (km) Brightness Sun altitude
Exits shadow 01:49:08 66° 319° (NW) 869 3.5 -26.0°
Maximum altitude 01:49:23 67° 335° (NNW) 864 3.6 -25.9°
Drops below altitude 10° 01:54:57 10° 58° (ENE) 2,368 7.0 -24.7°
Sets 01:57:27 0° 61° (ENE) 3,297 8.0 -24.2°
